Location: Haliburton Scout Reserve
(45.0900°N, 78.3200°W)
Time: 18:29:13
(UTC-05:00)

Courier 1B - Pass Details

Date: 01 December 2023
Orbit: 962 x 1209 km, 28.3° (Epoch: 23 February)

Event Time Altitude Azimuth Distance (km) Brightness Sun altitude
Rises 11:09:47 0° 221° (SW) 3,665 11.0 22.0°
Reaches altitude 10° 11:13:51 10° 198° (SSW) 2,694 11.0 22.2°
Maximum altitude 11:17:03 14° 167° (SSE) 2,392 12.2 22.3°
Drops below altitude 10° 11:20:15 10° 137° (SE) 2,685 10.9 22.4°
Sets 11:24:16 0° 114° (ESE) 3,643 11.0 22.5°
